Location: Brunembert
(50.7122°N, 1.8935°E)
Time: 01:21:37
(UTC+00:00)

Cosmos 1500 Rocket - Pass Details

Date: 05 August 2021
Orbit: 602 x 632 km, 82.5° (Epoch: 18 September)

Event Time Altitude Azimuth Distance (km) Brightness Sun altitude
Exits shadow 23:17:16 - 249° (WSW) 2,704 6.7 -22.0°
Reaches altitude 10° 23:20:10 10° 275° (W) 2,010 6.3 -22.1°
Maximum altitude 23:22:03 12° 301° (WNW) 1,854 6.5 -22.1°
Drops below altitude 10° 23:23:58 10° 326° (NW) 2,021 7.1 -22.2°
Sets 23:27:35 0° 356° (N) 2,939 8.5 -22.3°
